Tracking 18980 objects as of 19-Feb-2018
HD Live streaming from Space Station
objects crossing your sky now

FENGYUN 1C DEB

Track FENGYUN 1C DEB now!
10-day predictions


NORAD ID: 31682
Int'l Code: 1999-025CCQ
Perigee: 692.4 km
Apogee: 739.1 km
Inclination: 98.7 °
Period: 99.0 minutes
Semi major axis: 7086 km
RCS: 0.0091 m2 (small)
Launch date: May 10, 1999
Source: People's Republic of China (PRC)
Launch site: Taiyaun Space Center, China (TSC)

Note: This is SATELLITE DEBRIS
aabbcc
Your satellite tracking list
Your tracking list is empty




NASA's NSSDC Master Catalog

Two Line Element Set (TLE):
1 31682U 99025CCQ 18047.35020694 +.00002919 +00000-0 +68098-3 0  9999
2 31682 098.7228 096.5264 0032960 265.5357 094.2073 14.55244870561303
Source of the keplerian elements: AFSPC